STARLINK-11481, 62230

Orbit data source: Space-Track

STARLINK-11481, 62230 is a payload satellite owned by SpaceX/Seattle (US) in LEO that was launched on Thu, 05 Dec 2024 UTC via an FALCON 9 launch vehicle from the Air Force Western Test Range (AFWTR). Payload-class satellites include a variety of spacecraft equipped with specific instruments for various scientific and technological missions. These include communications satellites like Starlink; space stations such as the ISS; scientific satellites like the Hubble; Earth observation satellites from companies like Planet Labs, Umbra, and HawkEye 360; GPS; miniature CubeSats for education and research; and military/defense satellites.

Loading next visibility...
Identifier
62230, 2024-231N
Orbit
LEO
Country
Flag of USUS
Related business
Manufacturer
SpaceX/Seattle
Mission
Operational Commercial Communications
Bus & Motor
STARLINK V2MD, Unknown motor
Mass
960 kg wet, ~910 kg dry
Launch date (UTC)
2024-12-05 (11 months ago)
Launch vehicle
FALCON 9
Launch site
Air Force Western Test Range (AFWTR)
Object type
Payload
Rocket body
Debris
Shape & HBR
Box + 2 Pan, 18.1 m
Radar Cross Section
36.964 m², Large (>1 m²)

Expand to show TLE details & history
Last TLE update: 19 hours ago

TLE from 19 hours ago
0 STARLINK-11481
1 62230U 24231N   25292.83353318  .00452280  00000-0  35424-2 0  9990
2 62230  53.1564  75.9845 0002715  19.1644 340.9476 15.69682728 51280
Epoch: 2025-10-19T20:00Z
TLE epoch observation values (Epoch: 2025-10-19T20:00:17.266Z)
Latitude
Longitude
107.36804°
Altitude
358.99 km
Speed
7.696 km/s
True Right ascension
05h 03m 56s
True Declination
0° 00' 00"
Sunlit
Object was in full shadow at epoch
Visualization orbit readout
Latitude
Unknown
Longitude
Unknown
Altitude
Unknown
Speed
Unknown
Apparent Right ascension
Unknown
Apparent Declination
Unknown
Sunlit
N/A
Visualization observer readout
Local Sidereal Time
10:23:51
Azimuth
Unknown
Elevation
Unknown
Doppler factor
Unknown
Orbital elements
Apogee altitude
361.895 km
Perigee altitude
358.237 km
Semi-major axis
6,738.203 km
Eccentricity
0.00027
Inclination
53.1564°
RAAN
75.9845°
Arg. of periapsis
19.1644°
True anomaly
340.93744°
Mean anomaly
340.9476°
Eccentric anomaly
340.94252°
Mean motion
3.92398 °/min
Orbital period
91.74 mins
BSTAR
0.0035424
Loading maneuver chart data...
Computing Atmospheric mass density...
Loading historical data...
Loading historical data...
Loading historical data...
Loading historical data...
Loading historical data...
Loading historical data...
Loading historical data...

Documentation

Showing up to 5 results
|